Zurück zum Katalog

FENGYUN 1C DEB

AktivSSO
NORAD 31477·DEBRIS·🇨🇳 China

Gestartet May 10, 1999 von Taiyuan Satellite Launch Center

Loading…

Nächste Überflüge (nächste 24 Stunden)

TLE

AktuellSource: Space-Track

Epoche: Sep 14, 2026, 21:42 UTC

1 31477U 99025BVR 26257.90418581  .00000408  00000-0  27551-3 0  9990
2 31477  98.9082 246.4744 0109293 339.5684  20.1127 14.03097516992765

Verfolge FENGYUN 1C DEB in Echtzeit mit AllMySat

Download on the App Store